Retour au catalogue

STARLINK-36397

ActifCommunicationsSSO
NORAD 67538·PAYLOAD·🇺🇸 United States

Lancé Jan 22, 2026 depuis Vandenberg Space Force Base

Loading…

Prochains Passages (prochaines 24 heures)

TLE

FraisSource: CelesTrak SupGP

Époque: Sep 15, 2026, 02:52 UTC

1 67538C 26014G   26258.11993056  .00076510  00000+0  23742-2 0  2585
2 67538  97.2849 143.5816 0001763  93.9578 325.9547 15.33411837    18

Suivez STARLINK-36397 en temps réel avec AllMySat

Download on the App Store